Location: Croydon
(51.3762°N, 0.0982°W)
Time: 10:47:02
(UTC+00:00)

KKS-1 - Pass Details

Date: 24 October 2019
Orbit: 636 x 651 km, 98.3° (Epoch: 14 November)

Event Time Altitude Azimuth Distance (km) Brightness Sun altitude
Rises 06:49:35 0° 146° (SE) 2,955 ? -8.3°
Reaches altitude 10° 06:51:51 10° 140° (SE) 2,047 ? -8.0°
Maximum altitude 06:56:07 46° 68° (ENE) 870 ? -7.3°
Drops below altitude 10° 07:00:24 10° 355° (N) 2,054 ? -6.7°
Sets 07:02:40 0° 350° (N) 2,966 ? -6.3°
